Location: Lynch Observatory
(39.9540°N, 75.1861°W)
Time: 00:13:25
(UTC-04:00)

ZACube-1 - Pass Details

Date: 26 April 2024
Orbit: 566 x 635 km, 97.7° (Epoch: 27 May)

Event Time Altitude Azimuth Distance (km) Brightness Sun altitude
Rises 03:54:40 0° 13° (NNE) 2,931 ? -22.5°
Reaches altitude 10° 03:56:52 10° 14° (NNE) 2,024 ? -22.2°
Maximum altitude 04:01:18 81° 102° (ESE) 649 ? -21.6°
Enters shadow 04:02:29 49° 182° (S) 825 ? -21.4°
